Location: Camp Roosevelt
(41.7914°N, 81.1673°W)
Time: 17:59:42
(UTC+00:00)

Cosmos 1553 Rocket - Pass Details

Date: 29 October 2020
Orbit: 940 x 1009 km, 82.9° (Epoch: 27 November)

Event Time Altitude Azimuth Distance (km) Brightness Sun altitude
Rises 22:53:39 0° 166° (SSE) 3,712 7.0 -6.5°
Reaches altitude 10° 22:56:17 10° 160° (SSE) 2,760 6.3 -7.0°
Maximum altitude 23:02:15 45° 90° (E) 1,323 4.3 -8.1°
Drops below altitude 10° 23:08:09 10° 20° (NNE) 2,736 6.1 -9.1°
Sets 23:10:45 0° 14° (NNE) 3,677 6.8 -9.6°
